This demonstration page uses our WeatherBlox Daily Observations layout. Learn more.

Left ArrowRight Arrow

39.08367, -84.50855

Hourly Observations for March 17, 2015

Temp ( °F °C ) Dew Point ( °F °C ) Humidity (%) Winds ( mph kmh ) Pressure ( in mb ) Visibility ( mi km ) Precip ( " mm )
12:53 am 00:53 Clear 63 17.2 46 7.8 54 54 WSW 14 22 29.88 1012 10 16.0934 N/A
1:53 am 01:53 Clear 61 16.1 47 8.3 60 60 WSW 13 20 29.86 1011 10 16.0934 N/A
2:53 am 02:53 Clear 61 16.1 49 9.4 65 65 WSW 16 26 29.85 1011 10 16.0934 N/A
3:53 am 03:53 Clear 59 15 50 10 72 72 WSW 6 9 29.85 1011 10 16.0934 N/A
4:53 am 04:53 Clear 59 15 51 10.6 75 75 VRB 6 9 29.84 1011 10 16.0934 N/A
5:53 am 05:53 Clear 58 14.4 51 10.6 78 78 WSW 7 11 29.86 1011 10 16.0934 N/A
6:53 am 06:53 Clear 58 14.4 52 11.1 81 81 WSW 5 7 29.88 1012 10 16.0934 N/A
7:11 am 07:11 Mostly Cloudy 59 15 52 11.1 78 78 W 5 7 29.88 1012 10 16.0934 N/A
7:53 am 07:53 Cloudy 59 15 52 11.1 78 78 NNW 12 19 29.91 1013 10 16.0934 N/A
8:28 am 08:28 Partly Cloudy 55 13 46 8 72 72 N 13 20 29.97 1015 10 16.0934 N/A
8:53 am 08:53 Sunny 53 11.7 43 6.1 69 69 N 20 31 29.97 1015 10 16.0934 N/A
9:53 am 09:53 Partly Cloudy 51 10.6 42 5.6 71 71 N 16 26 30.04 1017 10 16.0934 N/A
10:00 am 10:00 Mostly Cloudy 52 11 43 6 72 72 N 20 31 30.06 1018 10 16.0934 N/A
10:53 am 10:53 Cloudy 48 8.9 41 5 77 77 N 12 19 30.09 1019 10 16.0934 N/A
11:53 am 11:53 Cloudy 50 10 38 3.3 63 63 N 12 19 30.12 1020 10 16.0934 N/A
12:53 pm 12:53 Cloudy 54 12.2 37 2.8 53 53 N 17 28 30.14 1021 10 16.0934 N/A
1:53 pm 13:53 Mostly Sunny 54 12.2 33 0.6 45 45 NNW 14 22 30.15 1021 10 16.0934 N/A
2:53 pm 14:53 Sunny 54 12.2 32 undefined 43 43 NNW 15 24 30.14 1021 10 16.0934 N/A
3:53 pm 15:53 Sunny 54 12.2 30 -1.1 40 40 NNW 16 26 30.16 1021 10 16.0934 N/A
4:53 pm 16:53 Sunny 52 11.1 29 -1.7 41 41 N 12 19 30.18 1022 10 16.0934 N/A
5:53 pm 17:53 Sunny 50 10 27 -2.8 41 41 NNW 16 26 30.2 1023 10 16.0934 N/A
6:53 pm 18:53 Sunny 48 8.9 26 -3.3 42 42 NNW 15 24 30.21 1023 10 16.0934 N/A
7:53 pm 19:53 Clear 46 7.8 25 -3.9 44 44 N 14 22 30.22 1024 10 16.0934 N/A
8:53 pm 20:53 Clear 44 6.7 23 -5 43 43 N 7 11 30.25 1024 10 16.0934 N/A
9:53 pm 21:53 Clear 42 5.6 22 -5.6 45 45 N 7 11 30.28 1025 10 16.0934 N/A
10:53 pm 22:53 Clear 40 4.4 19 -7.2 43 43 N 16 26 30.3 1026 10 16.0934 N/A
11:53 pm 23:53 Clear 37 2.8 18 -7.8 46 46 NNW 16 26 30.32 1027 10 16.0934 N/A

Powered by AerisWeather